{"data":{"norad_id":66994,"intl_designator":"2025-292B","name":"THE ARAB SATELLITE 813","alt_names":[],"object_type":"PAYLOAD","status":"ACTIVE","operator":null,"country":"UAE","launch_date":"2025-12-10","launch_site_code":"JSC","launch_vehicle":null,"mission":null,"orbit_class":"UNKNOWN","rcs_meters":null,"size_class":null,"mass_kg":null,"dimensions":null,"purposes":[],"wikipedia_slug":null,"has_3d_model":false,"image_url":null,"decayed_at":null,"tle_current":{"epoch":"2026-05-25T04:17:05.576928Z","epoch_age_seconds":59964,"freshness":"FRESH","line1":"1 66994U 25292B   26145.17853677  .00003835  00000+0  26466-3 0  9991","line2":"2 66994  97.6323 221.1642 0016232  80.3790 279.9270 15.06283007 24986","mean_motion":15.06283007,"eccentricity":0.0016232,"inclination_deg":97.6323,"raan_deg":221.1642,"arg_perigee_deg":80.379,"mean_anomaly_deg":279.927,"bstar":0.00026466,"rev_number":2498,"period_min":95.599564843262,"perigee_km":536.32833999885,"apogee_km":558.8119556836,"semimajor_km":6925.7071478412,"source":"CELESTRAK","updated_at":"2026-05-25T13:38:06.637872Z"}}}